When you browse on this site, cookies collect data to enhance your experience and personalize the content and advertising you see.
Visit our Privacy Policy to learn more. By continuing to use the site, you agree to this use of cookies and data.
  • In Österreich
  • Länderverzeichnis
  • Für 7 Tage
  • Wassertemperatur
  • Satellitenkarten
  • Wetterkarte
  • News
  • Widgets
  • user-avatar
    Anmelden

    Stündliche Wetter Andora

    Heute, 16 Februar, Samstag

    Zeit Temperatur Niederschläge Wind Luftdruck Luftfeuchtigkeit
    00:00 +1°C° 0 mm 1 m/S 628 mmHg 43%
    01:00 +1°C° 0 mm 1 m/S 628 mmHg 41%
    02:00 +1°C° 0 mm 1 m/S 628 mmHg 39%
    03:00 +1°C° 0 mm 1 m/S 628 mmHg 37%
    04:00 +1°C° 0 mm 1 m/S 628 mmHg 35%
    05:00 +1°C° 0 mm 1 m/S 628 mmHg 34%
    06:00 0°C° 0 mm 1 m/S 628 mmHg 34%
    07:00 +2°C° 0 mm 1 m/S 629 mmHg 36%
    08:00 +4°C° 0 mm 1 m/S 629 mmHg 38%
    09:00 +5°C° 0 mm 2 m/S 630 mmHg 40%
    10:00 +7°C° 0 mm 2 m/S 631 mmHg 39%
    11:00 +8°C° 0 mm 2 m/S 631 mmHg 38%
    12:00 +9°C° 0 mm 2 m/S 632 mmHg 37%
    13:00 +9°C° 0 mm 2 m/S 631 mmHg 37%
    14:00 +9°C° 0 mm 2 m/S 631 mmHg 38%
    15:00 +9°C° 0 mm 2 m/S 630 mmHg 38%
    16:00 +6°C° 0 mm 2 m/S 629 mmHg 41%
    17:00 +3°C° 0 mm 2 m/S 628 mmHg 43%
    18:00 +1°C° 0 mm 2 m/S 627 mmHg 46%
    19:00 -1°C° 0 mm 2 m/S 627 mmHg 45%
    20:00 -1°C° 0 mm 2 m/S 627 mmHg 43%
    21:00 -1°C° 0 mm 2 m/S 627 mmHg 42%
    22:00 -1°C° 0 mm 2 m/S 627 mmHg 42%
    23:00 -1°C° 0 mm 2 m/S 627 mmHg 42%

    Morgen, 17 Februar, Sonntag

    Zeit Temperatur Niederschläge Wind Luftdruck Luftfeuchtigkeit
    00:00 -1°C° 0 mm 2 m/S 626 mmHg 42%
    01:00 -1°C° 0 mm 2 m/S 626 mmHg 41%
    02:00 -2°C° 0 mm 2 m/S 626 mmHg 41%
    03:00 -2°C° 0 mm 2 m/S 626 mmHg 40%
    04:00 -2°C° 0 mm 2 m/S 626 mmHg 39%
    05:00 -2°C° 0 mm 2 m/S 625 mmHg 39%
    06:00 -2°C° 0 mm 2 m/S 625 mmHg 39%
    07:00 +1°C° 0 mm 2 m/S 626 mmHg 38%
    08:00 +3°C° 0 mm 2 m/S 627 mmHg 38%
    09:00 +4°C° 0 mm 2 m/S 628 mmHg 37%
    10:00 +6°C° 0 mm 2 m/S 628 mmHg 35%
    11:00 +7°C° 0 mm 2 m/S 628 mmHg 33%
    12:00 +8°C° 0 mm 3 m/S 628 mmHg 31%
    13:00 +8°C° 0 mm 2 m/S 628 mmHg 32%
    14:00 +8°C° 0 mm 2 m/S 627 mmHg 33%
    15:00 +7°C° 0 mm 2 m/S 627 mmHg 34%
    16:00 +5°C° 0 mm 2 m/S 626 mmHg 41%
    17:00 +2°C° 0 mm 2 m/S 625 mmHg 47%
    18:00 -1°C° 0 mm 2 m/S 624 mmHg 54%
    19:00 -1°C° 0 mm 2 m/S 624 mmHg 55%
    20:00 -2°C° 0 mm 2 m/S 624 mmHg 57%
    21:00 -2°C° 0 mm 2 m/S 624 mmHg 58%
    22:00 -2°C° 0 mm 2 m/S 624 mmHg 59%
    23:00 -2°C° 0 mm 2 m/S 623 mmHg 60%

    übermorgen, 18 Februar, Montag

    Zeit Temperatur Niederschläge Wind Luftdruck Luftfeuchtigkeit
    00:00 -2°C° 0 mm 2 m/S 623 mmHg 61%
    01:00 -2°C° 0 mm 2 m/S 623 mmHg 58%
    02:00 -2°C° 0 mm 2 m/S 623 mmHg 56%
    03:00 -2°C° 0 mm 2 m/S 623 mmHg 53%
    04:00 -2°C° 0 mm 2 m/S 623 mmHg 52%
    05:00 -2°C° 0 mm 2 m/S 622 mmHg 50%
    06:00 -2°C° 0 mm 2 m/S 622 mmHg 48%
    07:00 +1°C° 0 mm 2 m/S 623 mmHg 44%
    08:00 +2°C° 0 mm 2 m/S 624 mmHg 41%
    09:00 +4°C° 0 mm 2 m/S 625 mmHg 37%
    10:00 +5°C° 0 mm 2 m/S 625 mmHg 33%
    11:00 +5°C° 0 mm 3 m/S 626 mmHg 30%
    12:00 +8°C° 0 mm 3 m/S 626 mmHg 26%
    13:00 +7°C° 0 mm 3 m/S 625 mmHg 28%
    14:00 +7°C° 0 mm 2 m/S 625 mmHg 30%
    15:00 +7°C° 0 mm 2 m/S 625 mmHg 32%
    16:00 +4°C° 0 mm 2 m/S 624 mmHg 41%
    17:00 +2°C° 0 mm 2 m/S 623 mmHg 49%
    18:00 +1°C° 0 mm 1 m/S 622 mmHg 58%
    19:00 +1°C° 0 mm 1 m/S 623 mmHg 59%
    20:00 0°C° 0 mm 1 m/S 623 mmHg 60%
    21:00 0°C° 0 mm 1 m/S 623 mmHg 61%
    22:00 0°C° 0 mm 1 m/S 623 mmHg 61%
    23:00 0°C° 0 mm 1 m/S 623 mmHg 60%

    19 Februar, Dienstag

    Zeit Temperatur Niederschläge Wind Luftdruck Luftfeuchtigkeit
    00:00 0°C° 0 mm 1 m/S 623 mmHg 59%
    01:00 0°C° 0 mm 1 m/S 623 mmHg 56%
    02:00 0°C° 0 mm 1 m/S 623 mmHg 53%
    03:00 0°C° 0 mm 1 m/S 623 mmHg 49%
    04:00 0°C° 0 mm 1 m/S 623 mmHg 47%
    05:00 0°C° 0 mm 1 m/S 623 mmHg 44%
    06:00 0°C° 0 mm 1 m/S 624 mmHg 41%
    07:00 +2°C° 0 mm 1 m/S 625 mmHg 38%
    08:00 +3°C° 0 mm 1 m/S 626 mmHg 35%
    09:00 +5°C° 0 mm 1 m/S 626 mmHg 32%
    10:00 +6°C° 0 mm 1 m/S 627 mmHg 30%
    11:00 +7°C° 0 mm 1 m/S 627 mmHg 28%
    12:00 +8°C° 0 mm 1 m/S 627 mmHg 27%
    13:00 +8°C° 0 mm 1 m/S 627 mmHg 29%
    14:00 +8°C° 0 mm 1 m/S 626 mmHg 31%
    15:00 +8°C° 0 mm 1 m/S 626 mmHg 33%
    16:00 +6°C° 0 mm 1 m/S 625 mmHg 42%
    17:00 +3°C° 0 mm 1 m/S 625 mmHg 51%
    18:00 +1°C° 0 mm 1 m/S 624 mmHg 60%
    19:00 +1°C° 0 mm 1 m/S 624 mmHg 59%
    20:00 +1°C° 0 mm 1 m/S 624 mmHg 58%
    21:00 0°C° 0 mm 1 m/S 624 mmHg 57%
    22:00 0°C° 0 mm 1 m/S 624 mmHg 55%
    23:00 0°C° 0 mm 1 m/S 624 mmHg 53%

    20 Februar, Mittwoch

    Zeit Temperatur Niederschläge Wind Luftdruck Luftfeuchtigkeit
    00:00 +1°C° 0 mm 1 m/S 624 mmHg 51%
    01:00 0°C° 0 mm 1 m/S 624 mmHg 51%
    02:00 0°C° 0 mm 1 m/S 624 mmHg 50%
    03:00 0°C° 0 mm 1 m/S 624 mmHg 50%
    04:00 0°C° 0 mm 1 m/S 624 mmHg 49%
    05:00 0°C° 0 mm 1 m/S 624 mmHg 49%
    06:00 0°C° 0 mm 1 m/S 625 mmHg 48%
    07:00 +2°C° 0 mm 1 m/S 626 mmHg 44%
    08:00 +3°C° 0 mm 0 m/S 627 mmHg 40%
    09:00 +5°C° 0 mm 0 m/S 628 mmHg 36%
    10:00 +6°C° 0 mm 0 m/S 628 mmHg 34%
    11:00 +8°C° 0 mm 1 m/S 629 mmHg 33%
    12:00 +9°C° 0 mm 1 m/S 629 mmHg 32%
    13:00 +9°C° 0 mm 1 m/S 629 mmHg 34%
    14:00 +9°C° 0 mm 1 m/S 628 mmHg 37%
    15:00 +9°C° 0 mm 1 m/S 628 mmHg 40%
    16:00 +7°C° 0 mm 1 m/S 627 mmHg 50%
    17:00 +4°C° 0 mm 1 m/S 626 mmHg 61%
    18:00 +1°C° 0 mm 0 m/S 626 mmHg 71%
    19:00 +1°C° 0 mm 0 m/S 626 mmHg 71%
    20:00 +1°C° 0 mm 0 m/S 626 mmHg 71%
    21:00 0°C° 0 mm 0 m/S 626 mmHg 72%
    22:00 +1°C° 0 mm 1 m/S 626 mmHg 70%
    23:00 +1°C° 0 mm 1 m/S 626 mmHg 68%

    21 Februar, Donnerstag

    Zeit Temperatur Niederschläge Wind Luftdruck Luftfeuchtigkeit
    00:00 +1°C° 0 mm 1 m/S 626 mmHg 67%
    01:00 +1°C° 0 mm 1 m/S 626 mmHg 64%
    02:00 +1°C° 0 mm 1 m/S 626 mmHg 62%
    03:00 +1°C° 0 mm 1 m/S 626 mmHg 59%
    04:00 +1°C° 0 mm 1 m/S 626 mmHg 57%
    05:00 +1°C° 0 mm 1 m/S 626 mmHg 54%
    06:00 +1°C° 0 mm 1 m/S 626 mmHg 51%
    07:00 +3°C° 0 mm 1 m/S 627 mmHg 46%
    08:00 +5°C° 0 mm 1 m/S 628 mmHg 41%
    09:00 +6°C° 0 mm 0 m/S 629 mmHg 36%
    10:00 +8°C° 0 mm 1 m/S 630 mmHg 35%
    11:00 +9°C° 0 mm 1 m/S 630 mmHg 33%
    12:00 +10°C° 0 mm 1 m/S 630 mmHg 32%
    13:00 +10°C° 0 mm 1 m/S 630 mmHg 35%
    14:00 +10°C° 0 mm 1 m/S 630 mmHg 38%
    15:00 +10°C° 0 mm 1 m/S 630 mmHg 42%
    16:00 +7°C° 0 mm 1 m/S 629 mmHg 53%
    17:00 +5°C° 0 mm 1 m/S 628 mmHg 63%
    18:00 +2°C° 0 mm 0 m/S 627 mmHg 74%
    19:00 +3°C° 0 mm 1 m/S 627 mmHg 73%
    20:00 +3°C° 0 mm 1 m/S 627 mmHg 72%
    21:00 +2°C° 0 mm 1 m/S 628 mmHg 72%
    22:00 +2°C° 0 mm 1 m/S 628 mmHg 69%
    23:00 +2°C° 0 mm 1 m/S 628 mmHg 67%
    Mehr zeigen